Location: Bruderhein
(53.8035°N, 112.9265°W)
Time: 22:18:18
(UTC+00:00)

PCSat - Visible Passes

Search period start: 24 June 2024 00:00
Search period end: 04 July 2024 00:00
Orbit: 782 x 792 km, 67.1° (Epoch: 23 June)

Date Brightness Start Highest point End Pass type
(mag) Time Alt. Az. Time Alt. Az. Time Alt. Az.
27 Jun 11.6 10:00:07 10° SSE 10:03:59 20° ESE 10:07:52 10° ENE visible
28 Jun 11.8 09:29:31 10° SE 09:32:33 15° ESE 09:35:35 10° ENE visible
29 Jun 11.9 08:59:37 10° ESE 09:01:09 11° ESE 09:02:40 10° E visible
30 Jun 10.4 10:06:40 10° S 10:11:45 43° ESE 10:16:51 10° NE visible
01 Jul 10.8 09:35:24 10° S 09:40:11 33° ESE 09:45:00 10° NE visible
02 Jul 11.1 09:04:17 10° SSE 09:08:40 26° ESE 09:13:04 10° ENE visible
03 Jul 11.4 08:33:24 10° SSE 08:37:11 20° ESE 08:40:59 10° ENE visible
